📊 Raw Sensor Data

Showing records 45601 to 45625 of 85,055 total

ID Distance (ft) Battery V Battery A Int Temp (°F) Int Humid (%) Ext Temp (°F) Solar V RSSI SNR Time Stamp
39467 15.9 4.00 5 62 41 64 5.10 -74 8 05/02/2025 09:45 AM
39466 15.9 4.00 5 62 41 64 5.10 -75 8 05/02/2025 09:30 AM
39465 15.8 4.00 0 61 41 64 5.10 -75 8 05/02/2025 09:15 AM
39464 15.9 4.01 5 60 41 63 5.10 -73 7 05/02/2025 09:00 AM
39463 15.9 4.00 5 59 41 62 5.10 -78 7 05/02/2025 08:45 AM
39462 15.9 4.00 0 59 41 63 5.10 -75 8 05/02/2025 08:30 AM
39461 -- 4.03 5 58 41 59 5.10 -72 8 05/02/2025 08:15 AM
39460 15.8 4.00 0 56 41 60 5.10 -73 8 05/02/2025 08:00 AM
39459 15.8 4.00 0 55 41 59 5.10 -78 8 05/02/2025 07:45 AM
39458 15.8 4.08 60 53 41 57 4.50 -77 8 05/02/2025 07:30 AM
39457 15.8 4.02 24 52 41 55 4.50 -76 8 05/02/2025 07:16 AM
39456 15.7 4.03 -6 50 41 55 4.50 -78 8 05/02/2025 07:00 AM
39455 15.7 4.00 0 49 42 53 4.50 -79 8 05/02/2025 06:45 AM
39454 15.7 3.93 0 47 42 50 4.50 -79 8 05/02/2025 06:30 AM
39453 15.6 3.98 -10 47 42 48 4.50 -76 8 05/02/2025 06:15 AM
39452 15.6 3.93 -5 47 42 49 1.60 -78 9 05/02/2025 06:00 AM
39451 15.6 3.93 -5 48 42 49 0.50 -75 8 05/02/2025 05:45 AM
39450 15.6 3.93 -5 48 42 49 0.10 -77 8 05/02/2025 05:30 AM
39449 15.6 3.99 -5 48 42 49 0.00 -75 8 05/02/2025 05:15 AM
39448 15.6 3.93 -5 48 42 49 0.00 -74 7 05/02/2025 05:00 AM
39447 15.6 3.94 -5 48 42 49 0.00 -75 8 05/02/2025 04:45 AM
39446 15.6 3.93 -5 48 42 49 0.00 -76 8 05/02/2025 04:30 AM
39445 15.6 3.99 -5 48 42 49 0.10 -79 8 05/02/2025 04:15 AM
39444 15.6 3.94 -5 49 42 49 0.00 -79 8 05/02/2025 04:00 AM
39443 15.6 3.99 -5 49 42 50 0.00 -76 8 05/02/2025 03:45 AM